Date,TemperatureHighF,TemperatureAvgF,TemperatureLowF,DewpointHighF,DewpointAvgF,DewpointLowF,HumidityHigh,HumidityAvg,HumidityLow,PressureMaxIn,PressureMinIn,WindSpeedMaxMPH,WindSpeedAvgMPH,GustSpeedMaxMPH,PrecipitationSumIn
2013-2-1,57.3,48.7,38.5,36.0,29.4,20.0,67,50,26,30.35,30.17,24,7,27,0.00
2013-2-2,55.7,45.2,32.8,46.0,36.3,25.0,87,72,58,30.36,30.11,9,2,11,0.00
2013-2-3,61.0,52.0,44.7,45.0,37.3,34.0,85,59,39,30.11,29.93,18,6,26,0.00
2013-2-4,54.4,47.3,37.7,43.0,38.4,32.0,87,72,46,30.15,30.03,7,1,9,0.00
2013-2-5,64.1,52.4,41.6,54.0,48.0,40.0,97,85,61,30.09,29.95,14,4,17,0.00
2013-2-6,63.7,56.4,51.9,56.0,52.9,50.0,95,88,71,30.16,30.03,10,2,14,0.00
2013-2-7,60.8,55.3,51.3,60.0,51.5,-99.9,98,94,93,30.15,29.70,7,-10,13,0.92
2013-2-8,62.2,54.9,49.4,61.0,51.3,47.0,98,87,70,30.05,29.70,17,6,23,0.92
2013-2-9,61.8,50.8,42.6,52.0,40.0,27.0,94,70,28,30.33,30.05,11,3,14,0.00
2013-2-10,65.5,54.6,42.4,58.0,50.1,41.0,96,85,69,30.38,30.18,10,2,15,0.00
2013-2-11,64.1,61.6,59.0,62.0,60.1,57.0,97,94,86,30.21,30.05,13,4,15,1.36
2013-2-12,60.5,56.6,51.4,59.0,55.3,50.0,98,95,77,30.11,29.86,14,2,16,0.67
2013-2-13,70.6,60.0,53.0,65.0,55.9,48.0,99,88,49,29.88,29.68,21,6,29,0.61
2013-2-14,53.7,50.2,46.2,50.0,44.0,40.0,93,80,62,30.08,29.86,11,2,13,0.06
2013-2-15,56.3,49.4,42.7,46.0,43.9,40.0,94,82,63,30.11,29.96,10,3,14,0.06
2013-2-16,53.3,46.0,38.5,48.0,41.6,26.0,96,85,50,30.05,29.84,24,6,28,0.03
2013-2-17,47.2,39.1,32.8,31.0,22.7,15.0,79,55,29,30.32,30.05,17,7,24,0.03
2013-2-18,50.1,42.3,32.2,40.0,30.9,22.0,90,67,34,30.43,30.26,9,1,13,0.00
2013-2-19,61.2,53.8,41.2,56.0,51.0,39.0,97,90,73,30.26,29.97,14,4,19,0.13
2013-2-20,52.8,47.9,39.6,51.0,37.7,29.0,97,70,41,30.17,30.05,11,4,13,0.13
2013-2-21,57.0,50.0,41.0,52.0,45.4,40.0,97,85,64,30.18,30.09,9,2,15,0.00
2013-2-22,63.2,55.7,50.6,62.0,50.8,-99.9,98,88,78,30.17,30.02,11,-18,22,0.54
2013-2-23,60.6,53.7,47.8,60.0,53.3,47.0,99,98,97,30.02,29.80,13,4,16,1.32
2013-2-24,64.0,55.6,50.1,58.0,52.8,49.0,98,91,68,29.99,29.76,17,5,20,0.25
2013-2-25,53.7,50.1,44.0,53.0,49.2,43.0,98,96,89,30.04,29.93,19,3,25,0.12
2013-2-26,67.2,61.0,48.8,65.0,58.9,48.0,99,93,75,29.93,29.58,28,8,31,0.17
2013-2-27,61.2,53.6,49.8,55.0,45.3,40.0,88,74,63,29.91,29.71,15,8,22,0.10
2013-2-28,59.7,53.2,48.2,45.0,39.6,34.0,81,62,39,29.90,29.79,19,7,24,0.08